Location: Perryvale
(54.4667°N, 113.3833°W)
Time: 23:19:12
(UTC+00:00)

Vanguard 1 - Pass Details

Date: 25 May 2024
Orbit: 652 x 3825 km, 34.2° (Epoch: 13 June)

Event Time Altitude Azimuth Distance (km) Brightness Sun altitude
Rises 02:05:24 0° 191° (S) 4,100 13.2 12.1°
Reaches altitude 10° 02:09:37 10° 167° (SSE) 3,640 12.7 11.5°
Maximum altitude 02:14:11 14° 138° (SE) 3,840 12.6 10.9°
Drops below altitude 10° 02:20:00 10° 111° (ESE) 4,855 13.0 10.1°
Sets 02:27:35 0° 92° (E) 6,632 13.7 9.1°
